Dewpoint
-2 1 1 -1 -0 -0 1 1 1 -1 -3 -2 -2 -4 -7 -9 -9 -9 -9 -9 -6 -2 6 7 9 10 10 9 9 9 9 8 6 6 4 2 -0 -2 -4 -5 -9 -12 -12 -12
0 1 -1 -2 -1 0 1 2 2 -0 -1 -1 -1 -1 -3 -5 -8 -9 -8 -10 -9 -5 -2 7 9 9 9 9 9 8 8 7 6 5 4 1 -1 -2 -3 -7 -11 -12 -11 -11
3 1 -1 -2 -1 -0 0 1 1 2 0 -1 -1 0 -1 -3 -4 -7 -8 -7 -10 -9 -7 5 8 8 8 8 8 8 8 7 6 4 2 1 -0 -1 -3 -9 -11 -11 -10 -9
1 -1 -0 0 1 -0 2 -0 2 2 3 4 1 6 1 -2 -2 -3 -5 -6 -8 -10 -9 3 7 7 7 7 7 7 7 7 6 3 3 2 0 -1 -3 -8 -9 -9 -8 -8
1 2 2 3 3 2 4 2 3 3 4 4 3 4 2 -1 -1 -3 -3 -4 -6 -8 -8 4 7 6 6 6 7 7 7 7 5 4 4 3 1 -1 -4 -6 -6 -8 -8 -7
4 2 1 1 1 1 1 1 2 3 4 7 4 3 2 1 1 2 0 1 1 -6 2 7 6 6 6 6 6 6 7 6 4 5 3 3 1 -2 -2 -2 -3 -7 -7 -7
4 4 2 2 3 2 1 2 6 7 8 8 3 4 2 3 3 2 2 2 4 5 7 6 5 5 5 5 6 6 6 6 5 5 4 3 -0 -0 -1 -2 -3 -6 -7 -7
7 7 3 1 3 4 3 2 7 10 8 6 3 6 4 3 2 2 3 3 3 5 5 5 5 5 5 5 5 5 6 5 5 4 3 3 2 0 -1 -2 -3 -6 -6 -6
3 2 -2 -3 -3 -1 4 5 1 4 4 6 5 4 3 3 3 3 3 3 2 3 4 4 4 4 4 5 5 5 5 5 4 4 3 3 1 -0 -1 -1 -3 -4 -5 -6
-0 2 -1 -4 -6 -5 -0 -1 7 8 11 10 6 4 7 5 4 3 3 2 2 3 4 5 4 4 4 4 4 4 4 4 4 3 3 3 1 -0 -0 -1 -2 -2 -5 -8
-3 -0 0 -2 -4 -4 -3 -1 1 6 9 10 10 7 3 4 4 2 -0 -1 -1 1 3 3 4 4 3 3 3 3 3 3 3 2 2 2 1 0 -0 -0 -2 -4 -8 -7
-0 1 3 1 -2 -3 -1 2 3 5 6 6 6 7 1 1 1 1 0 -0 -1 -1 -2 2 3 3 3 3 3 3 2 2 1 1 1 1 0 -0 -1 -4 -6 -4 -2 -5
1 3 3 1 -2 2 4 2 2 3 4 5 7 6 1 1 2 0 -1 -2 -3 -2 -1 -2 2 3 3 3 3 2 2 1 1 0 0 -0 -1 -3 -5 -6 -0 2 -0 -1
-2 2 3 3 3 4 6 5 3 4 5 6 5 4 4 3 2 2 0 -2 -4 -3 -2 -1 -1 2 3 3 3 2 2 2 1 1 0 -1 -4 -5 -2 2 1 -0 -1 -2
1 3 1 1 1 4 4 4 4 5 4 5 3 3 0 -0 2 1 -0 -3 -3 -3 -4 -2 -1 0 3 3 3 2 2 2 2 1 0 -2 2 2 2 1 -0 -1 -2 -6
-0 1 1 1 -1 -1 4 3 3 4 4 3 3 2 -1 -2 -3 -3 -4 -5 -4 -4 -5 -4 -3 -1 1 2 3 2 2 2 2 1 2 2 3 1 -0 -1 -1 -1 -4 -3
3 2 2 3 0 0 2 2 2 2 1 1 3 1 -1 -2 -2 -3 -4 -5 -7 -4 -5 -4 -3 -2 0 1 1 1 2 2 2 1 1 2 1 1 -0 -1 -1 -3 -4 -5
5 5 5 4 2 5 0 -3 -4 -0 -1 -3 -3 -4 -5 -5 -6 -5 -6 -5 -3 -4 -4 -5 -5 -3 -1 2 3 3 3 2 2 1 1 1 0 -0 -1 -1 -3 -4 -4 -5
2 3 5 5 5 2 -0 -2 -2 -0 0 -2 -2 -6 -9 -10 -9 -2 -3 -5 -5 -4 -6 -8 -8 -6 -5 -5 -5 2 3 3 2 2 1 1 0 -0 -1 -2 -3 -4 -5 -5
1 1 4 4 5 4 -0 -4 -5 -2 1 -5 -5 -4 -4 -8 -6 -1 -2 -4 -5 -6 -7 -6 -6 -8 -9 -8 -5 1 3 3 2 2 1 1 1 -0 -1 -2 -4 -4 -5 -5
2 1 3 4 4 2 -2 -5 -6 1 -2 -6 -6 -5 -4 -5 -4 -3 -2 -5 -6 -6 -7 -8 -9 -10 -8 -5 -2 1 2 3 2 1 1 0 0 -1 -2 -3 -4 -5 -6 -6
-3 1 4 2 3 3 -4 -5 -2 -4 -7 -7 -8 -11 -6 -3 -1 -1 -2 -5 -7 -9 -11 -16 -16 -13 -9 -7 -2 -0 1 1 1 0 0 -0 -1 -2 -3 -4 -4 -6 -6 -7
-1 -2 -1 1 2 -1 -2 -1 -3 -4 -6 -8 -7 -10 -11 -2 -1 -2 -7 -9 -10 -14 -14 -12 -5 -5 -4 -2 -2 0 0 -0 -0 0 -0 -1 -2 -3 -4 -5 -6 -6 -7 -8
-2 -2 1 1 -1 -2 -2 -2 -2 -2 -3 -3 -5 -9 -11 -7 -5 -5 -6 -8 -13 -20 -12 -3 -1 -1 -2 -3 -2 -1 -1 -1 -1 -0 -1 -2 -3 -4 -6 -6 -6 -7 -8 -9
-2 -3 -2 -2 -2 -0 0 0 1 1 -3 -4 -4 -8 -10 -9 -6 -6 -6 -7 -11 -18 -9 -2 -2 -1 -2 -3 -3 -3 -2 -1 -1 -1 -2 -3 -4 -5 -6 -7 -7 -7 -8 -8
-5 -4 -2 -3 -5 -2 -3 -5 1 1 1 -2 -2 -9 -9 -9 -9 -7 -7 -7 -7 -11 -7 -1 -1 -1 -2 -3 -3 -3 -3 -2 -2 -2 -3 -4 -5 -6 -7 -7 -8 -9 -9 -9
Wind_Speed
14 5 9 21 14 15 16 18 20 18 12 4 6 6 9 16 20 14 17 25 32 38 38 40 39 45 45 41 36 31 27 26 27 26 25 25 23 21 18 16 16 16 15 13
7 15 15 16 17 18 18 20 22 13 7 11 11 10 9 8 10 21 23 27 20 32 29 39 46 49 44 42 36 31 28 27 26 24 22 21 21 19 16 16 17 18 16 15
18 7 20 19 19 19 18 13 11 8 7 12 13 18 8 9 17 22 32 31 36 33 27 40 49 47 43 41 37 32 28 23 21 20 18 19 19 19 18 18 20 19 18 15
16 16 18 19 20 18 18 13 10 8 6 6 4 12 3 9 12 14 25 33 36 42 37 38 51 47 43 39 34 30 26 21 19 21 23 25 23 20 16 20 19 19 17 15
9 9 8 13 15 15 19 14 10 8 8 7 3 7 4 7 9 14 14 25 37 46 44 45 54 51 43 38 34 28 23 19 21 24 25 27 22 15 19 21 18 18 16 14
18 22 14 13 14 10 8 4 8 5 3 14 8 6 2 3 8 12 17 32 19 27 39 44 48 45 40 33 27 23 19 17 25 22 25 23 19 23 24 21 18 18 16 13
16 21 18 20 19 16 5 3 2 3 5 8 9 9 9 7 11 13 15 27 37 28 34 36 41 38 31 27 24 20 17 17 25 25 21 18 19 22 25 21 19 17 15 13
10 7 20 13 22 8 12 9 5 5 5 5 4 5 4 7 11 18 26 31 38 28 26 27 26 24 21 21 22 24 22 22 25 25 23 19 20 24 24 22 19 17 13 11
4 6 8 10 4 7 23 11 15 12 7 3 4 3 3 4 10 16 19 27 28 29 22 19 16 16 19 24 24 25 26 23 20 21 24 23 22 23 23 21 20 17 13 11
3 4 3 1 5 5 4 3 4 3 4 5 4 4 3 7 6 10 10 15 20 18 17 9 9 12 16 18 21 22 24 24 20 22 24 27 25 23 23 21 21 18 15 13
4 3 3 5 2 3 2 1 3 6 3 1 2 1 4 10 8 8 8 16 16 12 14 15 14 11 11 15 19 19 20 22 23 23 24 26 28 26 25 23 22 18 15 13
2 3 2 6 4 5 2 4 5 2 4 4 2 2 3 9 9 11 9 9 9 8 4 8 13 13 17 19 17 17 18 22 23 24 24 24 25 24 23 22 20 16 14 13
1 2 1 4 4 5 6 4 3 1 1 5 3 3 3 5 5 6 5 4 5 11 11 10 9 15 18 19 19 20 21 24 26 26 23 22 23 23 20 18 17 21 22 19
7 5 6 5 4 4 3 4 5 6 2 1 7 1 3 4 3 6 13 15 19 16 17 13 12 12 16 18 21 20 19 22 22 21 19 18 18 21 20 19 24 26 20 15
6 6 7 10 8 6 7 5 12 8 8 9 18 8 15 10 11 17 22 23 23 22 19 17 14 18 16 16 21 20 21 21 20 19 19 22 22 23 25 25 24 23 20 17
4 4 5 9 11 10 6 13 12 14 15 14 15 16 16 18 17 17 21 20 21 22 22 17 13 14 21 20 23 22 24 25 23 24 25 27 25 26 25 24 24 23 21 18
3 3 3 9 10 6 8 23 18 18 14 15 13 19 16 11 12 21 25 21 15 4 8 15 13 10 12 16 20 23 28 27 28 30 31 29 24 26 28 24 23 20 21 21
5 8 5 5 5 13 9 10 17 19 19 13 16 19 17 18 25 31 25 13 17 16 15 9 6 6 8 12 15 19 27 29 26 28 28 24 23 26 26 25 25 24 26 28
14 8 4 4 8 4 4 13 12 10 18 17 21 9 10 10 5 9 19 18 16 13 8 5 5 5 6 8 11 10 22 27 26 26 22 22 22 25 27 27 27 27 25 22
15 12 10 4 5 11 14 20 18 7 9 18 4 7 8 5 0 4 17 16 15 13 10 8 7 7 8 10 10 13 18 23 25 25 20 22 25 25 26 27 28 26 23 21
4 11 16 10 10 5 13 3 2 9 11 14 19 21 19 7 8 21 20 17 14 11 11 10 9 10 13 14 15 15 18 23 23 23 22 23 24 24 25 27 26 25 25 23
6 3 4 11 13 20 8 3 11 9 3 4 9 11 13 20 25 26 19 16 13 10 9 8 9 10 11 12 15 15 16 18 18 19 20 22 24 25 26 27 27 27 25 22
8 6 8 8 4 7 15 8 13 15 26 28 17 18 17 28 28 23 19 13 10 8 7 7 9 9 11 11 14 16 15 14 16 19 20 22 24 24 25 28 28 24 23 21
2 9 3 7 8 16 22 29 29 23 17 14 27 27 24 24 25 22 15 11 9 8 9 12 15 16 14 13 12 12 13 14 15 18 20 20 22 24 24 25 25 25 23 22
4 1 5 11 13 22 13 20 23 22 16 12 7 20 22 21 21 19 17 14 11 11 11 12 16 17 14 13 11 11 13 15 17 18 20 20 21 23 25 24 24 23 22 20
12 8 4 9 18 17 25 32 25 16 18 18 30 18 17 19 18 19 15 12 10 11 11 16 17 17 16 15 15 12 12 15 18 20 20 20 21 23 24 24 22 19 16 17
Wind_Direction
200 182 209 229 228 235 248 264 273 271 279 298 267 272 263 234 231 241 258 225 212 205 205 200 197 193 189 190 197 201 204 204 205 202 197 197 199 201 202 195 190 190 192 192
236 226 221 241 245 249 242 249 262 276 317 322 309 282 268 258 232 233 241 234 216 209 205 193 184 184 187 185 191 196 203 208 208 211 209 208 206 202 203 194 190 190 191 195
235 220 220 232 248 253 258 262 268 261 287 293 301 290 295 281 272 245 237 238 226 211 212 184 176 178 181 183 187 194 196 203 208 206 201 202 207 207 200 192 197 190 192 193
249 236 242 256 244 247 253 260 286 301 305 264 44 293 282 275 277 272 258 243 224 216 212 190 178 179 182 182 187 193 195 202 204 190 199 210 217 213 204 207 193 191 190 193
232 302 291 271 269 268 273 284 281 283 294 314 127 292 132 236 260 277 344 263 228 213 205 185 181 180 181 182 188 194 198 198 194 195 212 211 225 226 215 204 198 193 193 191
263 270 248 260 278 307 336 337 316 285 264 263 158 209 326 300 343 30 22 27 39 186 177 166 167 171 169 173 182 191 196 182 187 197 202 213 227 208 209 205 207 200 192 191
251 257 264 258 271 274 250 357 303 299 213 251 189 221 244 62 39 45 41 38 43 106 131 148 160 163 166 174 179 185 187 185 191 203 216 220 214 225 220 215 214 207 197 198
218 262 231 233 226 235 235 197 189 215 224 284 38 249 115 101 66 59 54 55 56 80 106 135 149 159 172 181 184 185 179 191 200 203 211 201 215 214 213 223 225 216 209 208
217 229 349 55 172 239 228 214 225 254 297 303 240 97 273 91 65 57 54 60 61 67 89 120 149 168 179 184 183 181 186 193 198 201 205 203 205 205 211 214 222 221 213 212
193 301 336 59 19 358 118 95 47 71 208 212 254 207 157 104 116 70 54 56 77 86 98 114 124 169 182 188 187 189 195 203 206 204 203 206 206 204 209 217 220 218 215 211
88 137 277 21 190 213 85 242 226 140 154 242 307 75 89 61 62 78 62 50 42 71 113 150 183 192 212 210 209 206 204 212 213 210 210 213 213 213 218 221 222 219 211 214
56 107 208 246 324 7 57 37 27 135 195 219 135 228 96 111 103 82 56 37 23 23 45 123 169 200 213 214 207 209 208 210 217 220 225 223 223 225 224 218 208 211 217 219
3 19 32 317 313 62 81 47 59 31 290 239 240 199 160 79 81 50 39 333 325 288 277 232 178 194 202 208 209 209 210 215 224 230 235 238 233 226 219 210 239 236 226 221
118 183 200 219 192 147 141 212 140 131 149 318 249 257 235 248 231 260 258 259 282 273 272 235 209 195 211 215 210 214 225 229 233 240 239 234 224 214 219 241 242 233 225 214
148 219 221 240 229 175 183 180 196 194 213 200 249 241 261 252 209 231 246 257 259 256 251 243 208 205 201 215 216 226 236 240 240 240 234 230 234 235 236 229 227 219 212 191
181 244 205 251 250 233 193 220 224 217 222 229 252 260 256 254 255 258 264 253 244 239 243 236 221 219 210 219 223 235 244 245 238 229 228 228 229 232 232 226 218 219 213 211
310 195 194 237 231 258 259 232 221 227 230 210 221 237 254 247 239 245 254 246 220 102 176 136 122 128 190 229 236 249 244 242 236 233 232 235 235 239 232 228 225 216 210 195
199 224 236 230 154 228 235 233 239 227 240 234 230 242 248 247 252 240 246 186 140 137 141 152 177 192 209 205 222 250 250 238 234 236 239 240 237 236 229 225 222 218 212 211
211 202 251 212 196 292 290 235 218 205 234 235 238 245 239 260 79 67 154 168 161 157 168 200 214 225 240 257 270 258 240 240 241 245 257 244 239 236 228 225 222 216 217 213
223 234 221 208 210 226 227 249 261 269 273 245 123 250 236 245 230 227 156 158 158 162 164 180 200 222 242 245 241 236 244 243 246 246 252 244 238 233 230 227 222 220 217 211
242 228 230 238 240 257 254 217 223 220 249 232 224 247 251 215 221 177 165 154 155 161 176 197 217 236 238 235 231 230 230 234 242 242 244 242 237 234 229 224 219 216 212 214
248 240 248 235 237 244 248 258 219 244 257 189 196 165 132 142 149 159 166 166 175 189 207 234 239 248 255 250 244 242 234 230 235 238 242 239 234 231 228 223 216 212 214 214
259 228 251 232 228 274 283 306 297 285 246 238 226 177 171 157 160 166 173 182 196 212 226 242 256 246 265 266 250 235 238 236 234 234 235 235 235 232 227 219 212 208 211 211
251 6 292 340 322 274 267 274 278 295 295 276 247 195 182 177 175 180 186 202 217 227 232 220 232 241 256 267 261 242 237 234 237 235 234 231 231 226 219 214 212 210 207 206
206 354 274 300 291 334 335 330 332 309 248 232 196 202 184 183 181 190 199 213 228 238 229 212 241 254 260 271 264 244 232 232 234 233 232 228 224 220 212 209 210 211 213 216
249 237 221 259 259 237 271 295 290 305 283 221 220 180 185 193 191 194 206 223 248 245 233 217 230 253 261 267 274 263 245 233 234 231 226 222 216 210 206 202 199 206 213 205
Height
1477 1485 1488 1477 1479 1476 1474 1473 1469 1457 1449 1449 1447 1447 1444 1439 1439 1440 1440 1440 1442 1445 1449 1453 1457 1460 1464 1471 1476 1482 1488 1495 1500 1502 1503 1504 1505 1506 1508 1510 1513 1514 1515 1517
1477 1473 1472 1472 1471 1469 1468 1469 1465 1453 1444 1446 1447 1445 1439 1438 1436 1433 1432 1435 1436 1440 1445 1448 1451 1452 1459 1464 1470 1476 1483 1488 1495 1502 1505 1506 1505 1506 1507 1508 1510 1511 1513 1514
1471 1461 1461 1465 1464 1464 1460 1462 1460 1456 1446 1445 1446 1436 1438 1434 1430 1429 1426 1424 1428 1431 1436 1438 1444 1449 1454 1459 1464 1471 1479 1485 1492 1499 1503 1504 1505 1505 1505 1507 1507 1508 1510 1511
1457 1456 1456 1457 1458 1459 1462 1450 1448 1450 1455 1470 1449 1452 1440 1431 1428 1425 1421 1417 1417 1422 1425 1429 1436 1443 1448 1455 1462 1468 1475 1481 1487 1492 1496 1499 1500 1503 1505 1505 1506 1507 1508 1509
1452 1452 1454 1453 1451 1450 1451 1446 1446 1448 1454 1460 1456 1466 1443 1425 1426 1419 1421 1410 1407 1409 1412 1419 1429 1433 1443 1450 1457 1464 1470 1478 1484 1487 1491 1496 1499 1502 1502 1502 1503 1504 1506 1507
1450 1450 1449 1446 1443 1444 1444 1445 1447 1451 1453 1460 1457 1466 1445 1436 1430 1429 1423 1415 1406 1404 1409 1420 1429 1436 1443 1450 1457 1463 1470 1477 1483 1487 1492 1496 1497 1498 1498 1500 1502 1502 1503 1505
1452 1448 1443 1444 1447 1443 1446 1457 1476 1478 1469 1464 1440 1452 1443 1440 1436 1432 1430 1429 1418 1412 1421 1427 1433 1441 1448 1454 1461 1465 1471 1476 1481 1486 1489 1494 1496 1497 1498 1499 1499 1501 1502 1503
1457 1456 1436 1429 1436 1443 1442 1450 1476 1481 1478 1456 1443 1449 1443 1438 1438 1435 1434 1436 1432 1432 1436 1440 1446 1449 1453 1457 1462 1466 1470 1473 1478 1484 1486 1489 1490 1494 1496 1497 1498 1500 1502 1502
1442 1437 1423 1424 1430 1432 1433 1446 1447 1454 1454 1463 1455 1443 1440 1437 1440 1440 1440 1440 1443 1445 1446 1451 1454 1455 1457 1460 1462 1466 1471 1475 1478 1480 1483 1485 1487 1489 1492 1493 1495 1498 1499 1500
1429 1441 1428 1425 1427 1426 1429 1433 1464 1468 1473 1475 1453 1447 1452 1442 1444 1447 1447 1446 1448 1451 1453 1456 1458 1459 1461 1462 1464 1468 1472 1474 1475 1478 1480 1482 1485 1488 1490 1493 1493 1495 1496 1497
1425 1436 1438 1432 1435 1436 1437 1446 1445 1456 1468 1470 1468 1464 1447 1448 1448 1450 1452 1453 1453 1453 1456 1457 1458 1460 1462 1462 1464 1467 1470 1471 1472 1474 1476 1480 1483 1485 1488 1489 1492 1493 1494 1495
1432 1437 1447 1439 1431 1433 1437 1447 1450 1462 1462 1461 1464 1461 1446 1446 1448 1452 1454 1455 1456 1455 1457 1459 1460 1460 1458 1458 1461 1464 1466 1468 1469 1471 1472 1477 1481 1483 1485 1486 1489 1491 1493 1491
1435 1445 1453 1446 1438 1438 1448 1454 1455 1460 1459 1461 1466 1463 1450 1449 1449 1451 1453 1453 1454 1456 1455 1454 1456 1456 1456 1458 1459 1461 1464 1466 1467 1468 1470 1473 1476 1478 1481 1484 1486 1488 1485 1488
1432 1440 1446 1451 1452 1454 1457 1456 1455 1462 1477 1471 1465 1458 1456 1451 1450 1450 1451 1450 1451 1450 1451 1451 1451 1454 1455 1455 1457 1459 1462 1464 1465 1467 1469 1470 1472 1475 1477 1479 1480 1480 1484 1485
1433 1442 1439 1437 1439 1446 1449 1451 1452 1456 1452 1461 1447 1454 1443 1444 1443 1444 1443 1443 1444 1443 1444 1446 1447 1449 1450 1453 1454 1456 1458 1460 1463 1466 1468 1470 1469 1472 1473 1473 1475 1477 1478 1482
1431 1442 1434 1436 1432 1433 1442 1442 1441 1446 1444 1448 1447 1446 1435 1438 1437 1437 1435 1437 1436 1437 1438 1441 1442 1444 1447 1448 1451 1451 1453 1455 1458 1459 1460 1461 1463 1468 1469 1471 1472 1473 1476 1477
1436 1438 1439 1435 1430 1435 1442 1425 1432 1430 1432 1435 1444 1431 1426 1430 1429 1428 1428 1428 1430 1432 1434 1438 1441 1443 1445 1447 1449 1449 1449 1452 1452 1454 1456 1458 1462 1463 1465 1466 1469 1472 1473 1474
1432 1434 1437 1432 1435 1439 1417 1414 1413 1420 1418 1420 1421 1419 1420 1418 1418 1417 1422 1422 1425 1430 1432 1436 1439 1442 1443 1444 1444 1445 1446 1447 1449 1450 1452 1457 1458 1459 1462 1462 1467 1468 1469 1472
1423 1431 1430 1423 1423 1417 1413 1403 1410 1413 1414 1412 1407 1412 1411 1411 1413 1417 1418 1418 1420 1426 1430 1434 1435 1438 1440 1441 1440 1440 1442 1444 1445 1446 1449 1452 1454 1456 1459 1461 1464 1466 1468 1471
1417 1418 1423 1423 1415 1416 1403 1393 1403 1407 1417 1396 1402 1404 1405 1407 1421 1420 1416 1418 1420 1421 1425 1430 1433 1435 1436 1437 1438 1438 1438 1439 1440 1442 1444 1447 1449 1452 1454 1456 1459 1463 1466 1468
1420 1414 1413 1414 1411 1410 1391 1392 1395 1415 1402 1393 1395 1396 1398 1403 1403 1407 1413 1416 1419 1421 1423 1426 1428 1430 1431 1432 1433 1434 1435 1436 1437 1440 1442 1445 1446 1448 1450 1452 1455 1459 1461 1464
1417 1423 1412 1407 1406 1406 1385 1391 1401 1393 1391 1389 1391 1394 1394 1396 1401 1405 1410 1414 1417 1418 1419 1421 1424 1426 1427 1428 1429 1430 1432 1434 1436 1438 1439 1441 1443 1444 1447 1449 1451 1453 1457 1460
1418 1410 1409 1405 1398 1386 1383 1387 1388 1387 1386 1385 1386 1387 1388 1393 1398 1403 1408 1411 1414 1417 1417 1417 1418 1422 1423 1424 1424 1425 1427 1429 1431 1433 1434 1436 1438 1440 1442 1445 1448 1450 1453 1455
1407 1407 1408 1401 1389 1387 1383 1384 1383 1385 1383 1379 1381 1382 1382 1388 1393 1398 1402 1406 1409 1412 1415 1415 1414 1415 1418 1420 1420 1421 1423 1425 1427 1428 1430 1431 1433 1435 1437 1441 1446 1448 1449 1453
1406 1405 1407 1405 1400 1392 1383 1386 1386 1382 1380 1377 1378 1383 1379 1383 1386 1392 1397 1401 1405 1406 1410 1412 1411 1412 1414 1415 1416 1417 1419 1421 1422 1424 1425 1427 1429 1432 1435 1439 1443 1445 1447 1450
1398 1398 1402 1395 1395 1398 1390 1385 1385 1379 1376 1376 1380 1375 1376 1379 1380 1388 1392 1396 1399 1401 1405 1407 1409 1409 1409 1411 1412 1413 1414 1416 1418 1419 1420 1422 1425 1428 1432 1436 1440 1444 1447 1449